Showing default

COSMOS 2385, 27056

Orbit data source: Space-Track

COSMOS 2385, 27056 is a payload satellite owned by KVR (CIS) in LEO that was launched on Fri, 28 Dec 2001 UTC via a TSIKLON-3 launch vehicle from the Plesetsk Missile And Space Complex (PKMTR). Payload-class satellites include a variety of spacecraft equipped with specific instruments for various scientific and technological missions. These include communications satellites like Starlink; space stations such as the ISS; scientific satellites like the Hubble; Earth observation satellites from companies like Planet Labs, Umbra, and HawkEye 360; GPS; miniature CubeSats for education and research; and military/defense satellites.

Loading next visibility...
Identifier
27056, 2001-058B
Orbit
LEO
Last TLE update
9 hours ago
Origin
Manufacturer
NPO PM
Mission
Operational Defense Communications
Bus & Motor
STRELA-3, Unknown motor
Mass
225 kg wet, 225 kg dry
Launch date (UTC)
2001-12-28 (24 years ago)
Launch vehicle
TSIKLON-3
Launch site
Plesetsk Missile And Space Complex (PKMTR)
Object type
Payload
Rocket body
Debris
Shape & HBR
Cyl + 1 Arm, 7 m
Radar Cross Section
1.257 m², Medium (>0.1 m² and < 1m²)

Expand to show TLE details & history

TLE from 9 hours ago
0 COSMOS 2385
1 27056U 01058B   25186.54165757  .00000003  00000-0 -40330-4 0  9994
2 27056  82.5367  81.5620 0005393 305.1296 174.8341 12.60555871 82100
Epoch: 2025-07-05T12:59Z
TLE epoch observation values (Epoch: 2025-07-05T12:59:59.214Z)
Latitude
59.2882°
Longitude
130.11088°
Altitude
1,434.844 km
Speed
7.147 km/s
True Right ascension
16h 35m 32s
True Declination
59° 09' 00"
Sunlit
Object was in daylight at epoch
Visualization orbit readout
Latitude
-38.27564°
Longitude
-43.34815°
Altitude
1,431.075 km
Speed
7.147 km/s
Apparent Right ascension
01h 56m 38s
Apparent Declination
-54° 33' 48"
Sunlit
Object is in daylight
Visualization observer readout
Local Sidereal Time
09:37:13
Azimuth
228.35° WSW
Elevation
-45.379°
Doppler factor
1
Orbital elements
Apogee altitude
1,422.18 km
Perigee altitude
1,413.771 km
Semi-major axis
7,796.113 km
Eccentricity
0.00054
Inclination
82.5367°
RAAN
81.562°
Arg. of periapsis
305.1296°
True anomaly
Unknown
Mean anomaly
174.8341°
Eccentric anomaly
Unknown
Mean motion
3.15301 °/min
Orbital period
114.18 mins
BSTAR
-0.00004033
Loading maneuver chart data...
Loading SW <> Apogee altitude chart data...
Loading historical data...
Loading historical data...
Loading historical data...
Loading historical data...
Loading historical data...
Loading historical data...
Loading historical data...

COSMOS 2385 Visibility forecast

Observer location: undefined°, undefined°

Span
Click to sort rows by Start time (UTC) header in descending order
Start Az.
Max El. time (UTC)
Max El. Az.
Max El.
End time (UTC)
End Az.
16 mins2025-07-06 04:12:09.538Z1.848° NNE2025-07-06 04:20:09.538Z77.014° E38.088°2025-07-06 04:28:09.538Z151.416° SSE
12 mins2025-07-06 06:09:09.538Z328.112° NNW2025-07-06 06:15:09.538Z272.276° WNW28.105°2025-07-06 06:21:09.538Z220.378° SW
14 mins2025-07-06 17:02:09.538Z160.019° S2025-07-06 17:09:09.538Z84.632° E38.356°2025-07-06 17:16:09.538Z18.827° NNE
13 mins2025-07-06 18:58:09.538Z232.797° WSW2025-07-06 19:04:09.538Z286.177° WNW28.102°2025-07-06 19:11:09.538Z348° N
|